Khon Kaen, Thailand

12:21 PM +07 on March 28, 2017 (GMT +0700)
Khon Kaen

Weather History for VTUK - October, 2013

Change the Weather History Date:

Thursday, October 31, 2013

  Actual Average Record
Temperature  
Mean Temperature 82 °F -  
Max Temperature 91 °F 87 °F - ()
Min Temperature 73 °F 67 °F - ()
Cooling Degree Days 17    
Growing Degree Days 32 (Base 50)    
Moisture  
Dew Point 73 °F    
Average Humidity 70    
Maximum Humidity 94    
Minimum Humidity 45    
Precipitation  
Precipitation 0.00 in 0.02 in - ()
Sea Level Pressure  
Sea Level Pressure 29.92 in    
Wind  
Wind Speed 4 mph ()    
Max Wind Speed 10 mph    
Max Gust Speed -    
Visibility 5.7 miles    
Events      
T = Trace of Precipitation, MM = Missing Value Source: Averaged Metar Reports

Daily Weather History Graph

Daily Weather History Graph

Search for Another Location

Airport or City:

Trip Planner

Search our weather history database for the weather conditions in past years. The results will help you decide how hot, cold, wet, or windy it might be!

Date:

Astronomy

Oct. 31, 2013 Rise Set
Actual Time 6:05 AM +07 5:38 PM +07
Civil Twilight 5:43 AM +07 6:00 PM +07
Nautical Twilight 5:17 AM +07 6:26 PM +07
Astronomical Twilight 4:52 AM +07 6:51 PM +07
Moon 2:53 AM +07 (10/31) 3:12 PM +07 (10/31)
Length of Visible Light 12h 17m
Length of Day
11h 33m
Waning Crescent, 13% of the Moon is Illuminated
Oct 31
Waning Crescent
Nov 3
New
Nov 10
First Quarter
Nov 17
Full
Nov 26
Last Quarter

Hourly Weather History & Observations

Time (+07) Temp. Heat Index Dew Point Humidity Pressure Visibility Wind Dir Wind Speed Gust Speed Precip Events Conditions
12:00 AM 77.0 °F - 71.6 °F 83% 29.92 in 5.6 mi North 4.6 mph - N/A   Unknown
1:00 AM 77 °F - 69 °F 71% 29.88 in 6 mi North 2.3 mph - -   Mist
3:00 AM 73.4 °F - 71.6 °F 94% 29.89 in 5.6 mi Variable 2.3 mph - N/A   Unknown
6:00 AM 73.4 °F - 71.6 °F 94% 29.95 in 5.0 mi Variable 2.3 mph - N/A   Mostly Cloudy
7:00 AM 75.2 °F - 73.4 °F 94% 29.98 in 3.1 mi Variable 2.3 mph - N/A   Scattered Clouds
8:00 AM 78.8 °F - 73.4 °F 83% 29.98 in 5.0 mi NNE 3.5 mph - N/A   Mostly Cloudy
9:00 AM 82.4 °F 89.5 °F 75.2 °F 79% 30.01 in 4.3 mi Variable 3.5 mph - N/A   Scattered Clouds
10:00 AM 86.0 °F 95.1 °F 75.2 °F 70% 30.01 in 6.2 mi ENE 5.8 mph - N/A   Partly Cloudy
11:00 AM 86.0 °F 93.4 °F 73.4 °F 66% 29.98 in 6.2 mi NE 6.9 mph - N/A   Partly Cloudy
12:00 PM 87.8 °F 97.6 °F 75.2 °F 66% 29.95 in 6.2 mi ENE 10.4 mph - N/A   Scattered Clouds
1:00 PM 90 °F - 71 °F 45% 29.89 in 6 mi NE 5.8 mph - -   Partly Cloudy
1:00 PM 89.6 °F 98.2 °F 73.4 °F 59% 29.92 in 6.2 mi NNE 8.1 mph - N/A   Scattered Clouds
2:00 PM 91.4 °F 100.1 °F 73.4 °F 55% 29.89 in 6.2 mi NE 6.9 mph - N/A   Scattered Clouds
3:00 PM 91.4 °F 100.1 °F 73.4 °F 55% 29.86 in 6.2 mi NE 8.1 mph - N/A   Scattered Clouds
4:00 PM 89.6 °F 96.2 °F 71.6 °F 55% 29.86 in 6.2 mi ENE 4.6 mph - N/A   Partly Cloudy
5:00 PM 87.8 °F 93.8 °F 71.6 °F 58% 29.86 in 6.2 mi ENE 5.8 mph - N/A   Partly Cloudy
6:00 PM 84.2 °F 90.9 °F 73.4 °F 70% 29.89 in 6.2 mi Variable 2.3 mph - N/A   Partly Cloudy
7:00 PM 84 °F - 72 °F 59% 29.87 in 6 mi Calm Calm - -   Clear
7:00 PM 82.4 °F 88.2 °F 73.4 °F 74% 29.89 in - ENE 2.3 mph - N/A   Clear
10:00 PM 81 °F - 71 °F 65% 29.91 in 6 mi Calm Calm - -   Clear